Location: Moscow
(55.7500°N, 37.5830°E)
Time: 22:09:53
(UTC+03:00)

Transit 2A - All Passes

Search period start: 30 November 2021 00:00
Search period end: 10 December 2021 00:00
Orbit: 591 x 967 km, 66.7° (Epoch: 30 November)

Date Brightness Start Highest point End Pass type
(mag) Time Alt. Az. Time Alt. Az. Time Alt. Az.
30 Nov - 00:36:45 10° SSE 00:40:52 20° ESE 00:45:12 10° ENE visible
30 Nov - 02:17:24 10° SSW 02:23:11 76° SE 02:29:29 10° NE visible
30 Nov - 04:01:14 10° W 04:06:58 44° NNW 04:13:02 10° NE visible
30 Nov - 05:46:15 10° WNW 05:51:42 31° N 05:57:18 10° ENE visible
30 Nov - 07:30:35 10° NW 07:36:31 39° NNE 07:42:30 10° E visible
30 Nov - 09:14:07 10° NW 09:20:33 87° NE 09:26:53 10° SE daylight
30 Nov - 10:57:56 10° NW 11:03:17 29° WSW 11:08:31 10° SSW daylight
01 Dec - 00:03:46 10° SE 00:06:59 15° ESE 00:10:20 10° ENE night (unlit)
01 Dec - 01:43:20 10° SSW 01:49:00 60° SE 01:55:11 10° NE visible
01 Dec - 03:26:44 10° WSW 03:32:32 50° NNW 03:38:43 10° NE visible
01 Dec - 05:11:42 10° WNW 05:17:09 31° N 05:22:48 10° NE visible
01 Dec - 06:56:14 10° NW 07:02:02 36° NNE 07:07:53 10° E visible
01 Dec - 08:39:51 10° NW 08:46:16 73° NE 08:52:35 10° SE daylight
01 Dec - 10:23:28 10° NW 10:29:16 37° WSW 10:34:55 10° S daylight
01 Dec - 23:31:40 10° ESE 23:33:09 11° E 23:34:40 10° E night (unlit)
02 Dec - 01:09:23 10° SSW 01:14:53 47° ESE 01:20:51 10° NE visible
02 Dec - 02:52:17 10° WSW 02:58:08 59° NW 03:04:26 10° NE visible
02 Dec - 04:37:06 10° WNW 04:42:36 33° NNW 04:48:19 10° NE visible
02 Dec - 06:21:50 10° NW 06:27:30 33° NNE 06:33:15 10° ENE visible
02 Dec - 08:05:35 10° NW 08:11:56 61° NE 08:18:12 10° ESE daylight
02 Dec - 09:49:06 10° NW 09:55:12 47° WSW 10:01:07 10° SSE daylight
02 Dec - 11:34:56 10° W 11:37:01 12° W 11:39:04 10° WSW daylight
03 Dec - 00:35:35 10° S 00:40:49 37° ESE 00:46:28 10° NE visible
03 Dec - 02:17:53 10° SW 02:23:47 71° NW 02:30:10 10° NE visible
03 Dec - 04:02:30 10° W 04:08:04 35° NNW 04:13:53 10° NE visible
03 Dec - 05:47:24 10° NW 05:52:58 32° N 05:58:38 10° ENE visible
03 Dec - 07:31:18 10° NW 07:37:33 52° NNE 07:43:44 10° ESE visible
03 Dec - 09:14:46 10° NW 09:21:04 60° SW 09:27:12 10° SSE daylight
03 Dec - 10:59:30 10° WNW 11:03:10 16° WSW 11:06:46 10° SW daylight
04 Dec - 00:01:58 10° SSE 00:06:49 28° ESE 00:12:00 10° NE night (unlit)
04 Dec - 01:43:36 10° SW 01:49:30 85° NW 01:55:53 10° NE visible
04 Dec - 03:27:55 10° W 03:33:34 38° NNW 03:39:30 10° NE visible
04 Dec - 05:12:54 10° WNW 05:18:24 31° N 05:24:02 10° ENE visible
04 Dec - 06:57:00 10° NW 07:03:07 45° NNE 07:09:13 10° E visible
04 Dec - 08:40:29 10° NW 08:46:53 74° SW 08:53:08 10° SSE daylight
04 Dec - 10:24:40 10° WNW 10:29:16 21° WSW 10:33:47 10° SSW daylight
04 Dec - 23:28:34 10° SSE 23:32:52 22° ESE 23:37:25 10° ENE night (unlit)
05 Dec - 01:09:23 10° SW 01:15:15 79° SE 01:21:36 10° NE visible
05 Dec - 02:53:20 10° W 02:59:05 43° NNW 03:05:10 10° NE visible
05 Dec - 04:38:22 10° WNW 04:43:51 31° N 04:49:27 10° ENE visible
05 Dec - 06:22:41 10° NW 06:28:40 40° NNE 06:34:38 10° E visible
05 Dec - 08:06:12 10° NW 08:12:39 90° WNW 08:18:56 10° SE daylight
05 Dec - 09:50:04 10° NW 09:55:20 28° WSW 10:00:26 10° SSW daylight
05 Dec - 22:55:29 10° SE 22:58:59 16° ESE 23:02:37 10° ENE night (unlit)
06 Dec - 00:35:18 10° SSW 00:41:04 63° SE 00:47:18 10° NE visible
06 Dec - 02:18:49 10° WSW 02:24:39 49° NNW 02:30:51 10° NE visible
06 Dec - 04:03:48 10° WNW 04:09:18 31° N 04:14:57 10° NE visible
06 Dec - 05:48:19 10° NW 05:54:10 36° NNE 06:00:02 10° E visible
06 Dec - 07:31:56 10° NW 07:38:23 76° NE 07:44:40 10° SE visible
06 Dec - 09:15:36 10° NW 09:21:19 35° WSW 09:26:51 10° S daylight
06 Dec - 22:23:03 10° ESE 22:25:09 12° E 22:27:16 10° ENE night (unlit)
07 Dec - 00:01:20 10° SSW 00:06:56 50° ESE 00:12:59 10° NE night (unlit)
07 Dec - 01:44:20 10° WSW 01:50:15 57° NW 01:56:33 10° NE visible
07 Dec - 03:29:12 10° WNW 03:34:44 32° N 03:40:28 10° NE visible
07 Dec - 05:13:55 10° NW 05:19:39 34° NNE 05:25:25 10° ENE visible
07 Dec - 06:57:39 10° NW 07:04:02 63° NE 07:10:18 10° ESE visible
07 Dec - 08:41:13 10° NW 08:47:15 45° WSW 08:53:06 10° S daylight
07 Dec - 10:27:31 10° W 10:29:01 11° W 10:30:29 10° WSW daylight
07 Dec - 23:27:30 10° S 23:32:51 39° ESE 23:38:36 10° NE night (unlit)
08 Dec - 01:09:57 10° SW 01:15:53 68° NW 01:22:16 10° NE visible
08 Dec - 02:54:36 10° W 03:00:12 35° NNW 03:06:01 10° NE visible
08 Dec - 04:39:29 10° NW 04:45:06 32° N 04:50:48 10° ENE visible
08 Dec - 06:23:23 10° NW 06:29:40 54° NE 06:35:51 10° ESE visible
08 Dec - 08:06:52 10° NW 08:13:08 57° WSW 08:19:12 10° SSE daylight
08 Dec - 09:51:46 10° WNW 09:55:11 15° WSW 09:58:32 10° SW daylight
08 Dec - 22:53:50 10° S 22:58:51 30° ESE 23:04:10 10° NE night (unlit)
09 Dec - 00:35:38 10° SW 00:41:35 82° NW 00:48:00 10° NE night (unlit)
09 Dec - 02:20:01 10° W 02:25:42 38° NNW 02:31:38 10° NE visible
09 Dec - 04:05:01 10° WNW 04:10:33 31° N 04:16:11 10° ENE visible
09 Dec - 05:49:06 10° NW 05:55:15 47° NNE 06:01:20 10° ESE visible
09 Dec - 07:32:34 10° NW 07:38:58 71° SW 07:45:10 10° SSE visible
09 Dec - 09:16:51 10° WNW 09:21:18 20° WSW 09:25:37 10° SSW daylight
09 Dec - 22:20:24 10° SSE 22:24:53 23° ESE 22:29:37 10° ENE night (unlit)
